Fukushima, Japan

11:05 PM JST on June 24, 2017 (GMT +0900)
Fukushima

Weather History for RJSF - November, 2012

Change the Weather History Date:

Tuesday, November 6, 2012

  Actual Average Record
Temperature  
Mean Temperature 54 °F -  
Max Temperature 57 °F 49 °F 69 °F (2014)
Min Temperature 50 °F 39 °F 35 °F (2002)
Degree Days  
Heating Degree Days 12    
Growing Degree Days 4 (Base 50)    
Moisture  
Dew Point 54 °F    
Average Humidity 100    
Maximum Humidity 100    
Minimum Humidity 100    
Precipitation  
Precipitation 0.00 in - - ()
Sea Level Pressure  
Sea Level Pressure 29.96 in    
Wind  
Wind Speed 3 mph ()    
Max Wind Speed 8 mph    
Max Gust Speed -    
Visibility 1.8 miles    
Events Fog , Rain    
Averages and records for this station are not official NWS values.
T = Trace of Precipitation, MM = Missing Value Source: Averaged Metar Reports

Daily Weather History Graph

Daily Weather History Graph

Search for Another Location

Airport or City:

Trip Planner

Search our weather history database for the weather conditions in past years. The results will help you decide how hot, cold, wet, or windy it might be!

Date:

Astronomy

Nov. 06, 2012 Rise Set
Actual Time 6:07 AM JST 4:35 PM JST
Civil Twilight 5:40 AM JST 5:02 PM JST
Nautical Twilight 5:09 AM JST 5:33 PM JST
Astronomical Twilight 4:38 AM JST 6:04 PM JST
Moon 10:34 PM JST (11/6) 11:39 AM JST (11/6)
Length of Visible Light 11h 22m
Length of Day
10h 27m
Waning Gibbous, 59% of the Moon is Illuminated
Nov 6
Waning Gibbous
Nov 7
Last Quarter
Nov 14
New
Nov 20
First Quarter
Nov 28
Full

Hourly Weather History & Observations

Time (JST) Temp. Dew Point Humidity Pressure Visibility Wind Dir Wind Speed Gust Speed Precip Events Conditions
6:40 AM 51.8 °F 51.8 °F 100% 30.04 in 0.9 mi West 3.5 mph - N/A Fog , Rain Light Rain Showers
7:00 AM 51.8 °F 51.8 °F 100% 30.04 in 0.7 mi West 3.5 mph - N/A Fog , Rain Light Rain Showers
7:12 AM 51.8 °F 51.8 °F 100% 30.04 in 0.9 mi Variable 1.2 mph - N/A Fog , Rain Light Rain Showers
7:24 AM 50.0 °F 50.0 °F 100% 30.04 in 0.8 mi Variable 2.3 mph - N/A Fog , Rain Light Rain Showers
8:00 AM 50.0 °F 50.0 °F 100% 30.04 in 0.7 mi North 5.8 mph - N/A Fog , Rain Light Rain Showers
8:10 AM 50.0 °F 50.0 °F 100% 30.04 in 0.5 mi NNE 5.8 mph - N/A Fog , Rain Light Rain Showers
8:21 AM 51.8 °F 51.8 °F 100% 30.01 in 0.5 mi NNE 4.6 mph - N/A Fog , Rain Light Rain Showers
8:32 AM 51.8 °F 51.8 °F 100% 30.01 in 0.7 mi NNE 3.5 mph - N/A Fog , Rain Light Rain Showers
8:44 AM 51.8 °F 51.8 °F 100% 30.01 in 0.9 mi Variable 2.3 mph - N/A Fog , Rain Light Rain Showers
9:00 AM 53.6 °F 53.6 °F 100% 30.01 in 0.9 mi WSW 1.2 mph - N/A Fog , Rain Light Rain Showers
9:05 AM 53.6 °F 53.6 °F 100% 30.01 in 0.8 mi Variable 1.2 mph - N/A Fog , Rain Light Rain Showers
9:09 AM 53.6 °F 53.6 °F 100% 29.98 in 0.7 mi Variable 1.2 mph - N/A Fog , Rain Light Rain Showers
9:15 AM 53.6 °F 53.6 °F 100% 29.98 in 0.7 mi Calm Calm - N/A Fog , Rain Light Rain Showers
9:23 AM 53.6 °F 53.6 °F 100% 29.98 in 0.5 mi Calm Calm - N/A Fog , Rain Light Rain Showers
9:38 AM 53.6 °F 53.6 °F 100% 29.98 in 0.5 mi Variable 1.2 mph - N/A Fog , Rain Rain Showers
9:41 AM 51.8 °F 51.8 °F 100% 29.98 in 0.5 mi Calm Calm - N/A Fog , Rain Rain Showers
9:46 AM 53.6 °F 53.6 °F 100% 29.98 in 0.5 mi Variable 1.2 mph - N/A Fog , Rain Rain Showers
10:00 AM 53.6 °F 53.6 °F 100% 29.98 in 0.7 mi Variable 2.3 mph - N/A Fog , Rain Light Rain Showers
10:20 AM 53.6 °F 53.6 °F 100% 29.98 in 0.6 mi West 4.6 mph - N/A Fog , Rain Light Rain Showers
10:25 AM 53.6 °F 53.6 °F 100% 29.98 in 0.4 mi WSW 5.8 mph - N/A Fog , Rain Light Rain Showers
10:35 AM 53.6 °F 53.6 °F 100% 29.95 in 0.5 mi Variable 1.2 mph - N/A Fog , Rain Light Rain Showers
10:40 AM 53.6 °F 53.6 °F 100% 29.95 in 0.7 mi Variable 1.2 mph - N/A Fog , Rain Light Rain Showers
10:50 AM 53.6 °F 53.6 °F 100% 29.95 in 0.4 mi West 3.5 mph - N/A Fog , Rain Light Rain Showers
11:00 AM 53.6 °F 53.6 °F 100% 29.95 in 0.2 mi West 6.9 mph - N/A Fog , Rain Light Rain Showers
11:11 AM 53.6 °F 53.6 °F 100% 29.95 in 0.4 mi Variable 4.6 mph - N/A Fog , Rain Light Rain Showers
11:15 AM 53.6 °F 53.6 °F 100% 29.95 in 0.8 mi Variable 2.3 mph - N/A Fog , Rain Light Rain Showers
11:17 AM 53.6 °F 53.6 °F 100% 29.95 in 0.9 mi Variable 2.3 mph - N/A Fog , Rain Light Rain Showers
11:35 AM 53.6 °F 53.6 °F 100% 29.95 in 0.7 mi NE 1.2 mph - N/A Fog , Rain Light Rain Showers
12:00 PM 55.4 °F 55.4 °F 100% 29.92 in 1.9 mi Variable 2.3 mph - N/A Rain Light Rain Showers
12:16 PM 55.4 °F 55.4 °F 100% 29.92 in 3.1 mi South 5.8 mph - N/A Rain Light Rain Showers
1:00 PM 57.2 °F 57.2 °F 100% 29.92 in 3.1 mi SSW 4.6 mph - N/A Rain Rain Showers
1:43 PM 57.2 °F 57.2 °F 100% 29.89 in 6.2 mi South 6.9 mph - N/A Rain Light Rain Showers
2:00 PM 57.2 °F 57.2 °F 100% 29.89 in 6.2 mi SSE 5.8 mph - N/A   Mostly Cloudy
3:00 PM 57.2 °F 57.2 °F 100% 29.89 in 6.2 mi SSE 8.1 mph - N/A   Mostly Cloudy
4:00 PM 57.2 °F 57.2 °F 100% 29.86 in 6.2 mi South 5.8 mph - N/A   Mostly Cloudy
5:00 PM 57.2 °F 57.2 °F 100% 29.83 in 6.2 mi SE 6.9 mph - N/A   Mostly Cloudy
6:00 PM 57.2 °F 57.2 °F 100% 29.86 in 6.2 mi Variable 2.3 mph - N/A   Mostly Cloudy
7:00 PM 57.2 °F 57.2 °F 100% 29.80 in 6.2 mi SSE 2.3 mph - N/A   Mostly Cloudy